Regional Weather Roundup
Issued by NWS Cleveland, OH

Home | Current Version | Previous Version | Graphics & Text | Print | Product List | Glossary On
Versions: 1 2 3 4 5 6 7 8 9 10 11 12 13 14 15 16 17 18 19 20 21 22 23 24 25 26 27 28 29 30 31 32 33 34 35 36 37 38 39 40 41 42 43 44 45 46 47 48 49 50
913
ASUS41 KCLE 241610
RWRCLE
OHIO REGIONAL WEATHER ROUNDUP
NATIONAL WEATHER SERVICE CLEVELAND, OH
1200 PM EDT WED MAY 24 2017

NOTE: "FAIR" INDICATES FEW OR NO CLOUDS BELOW 12,000 FEET WITH NO
SIGNIFICANT WEATHER AND/OR OBSTRUCTIONS TO VISIBILITY.

OHZ001>008-015>018-024>027-034-035-043-044-241700-
   NORTHWEST OHIO

CITY           SKY/WX    TMP DP  RH WIND       PRES   REMARKS
DEFIANCE       PTSUNNY   68  58  70 E12       29.53F
FINDLAY        PTSUNNY   71  57  61 E13       29.52F
TOLEDO EXPRESS LGT RAIN  66  60  81 NE9       29.54F
TOLEDO EXEC    PTSUNNY   68  62  81 E8        29.56F
LIMA           PTSUNNY   68  59  73 SE13      29.53S
$$

OHZ009>014-019>023-028>033-038-089-241700-
   NORTHEAST OHIO

CITY           SKY/WX    TMP DP  RH WIND       PRES   REMARKS
CLE-HOPKINS    CLOUDY    67  57  70 SE5       29.61F
CLE-LAKEFRONT  CLOUDY    67  55  65 E6        29.58F
CUY CO. ARPT   PTSUNNY   66  57  72 SE9       29.61S
LORAIN-ELYRIA    N/A    N/A N/A N/A MISG      29.58F
ASHTABULA      CLOUDY    66  55  67 SE7       29.63S
AKRON-CANTON   CLOUDY    63  55  75 SE10      29.59F
WOOSTER        CLOUDY    63  56  78 SE10      29.58F
MANSFIELD      CLOUDY    63  56  78 E10       29.57F
YOUNGSTOWN     CLOUDY    65  54  67 E10       29.61F
$$

OHZ042-051>053-060>062-070>072-077>081-241700-
  SOUTHWEST OHIO

CITY           SKY/WX    TMP DP  RH WIND       PRES   REMARKS
CINC-COVINGTON CLOUDY    64  60  87 E8        29.47F
CINC-LUNKEN    CLOUDY    68  62  81 VRB5      29.48F
HAMILTON       CLOUDY    69  62  78 VRB6      29.50F
DAYTON         CLOUDY    67  57  70 E13       29.51F
WRIGHT-PAT AFB CLOUDY    67  60  79 E10       29.51F
DAYTON GENERAL FAIR      68  59  73 E8        29.50F
WILMINGTON     FAIR      67  59  75 SE9       29.51F
$$

OHZ036-037-039>041-045>050-054>059-063>069-073>076-082>088-241700-
  CENTRAL AND SOUTHEAST OHIO

CITY           SKY/WX    TMP DP  RH WIND       PRES   REMARKS
COLUMBUS       LGT RAIN  64  60  87 E5        29.54S FOG
OSU AIRPORT    CLOUDY    64  60  87 E8        29.53F
BOLTON FIELD   CLOUDY    64  59  82 SE10      29.54F
RICKENBACK AFB CLOUDY    64  59  82 SE8       29.53F
NEWARK         CLOUDY    63  58  83 SE7       29.54F
MARION         PTSUNNY   69  57  65 E15       29.56S
LANCASTER      CLOUDY    67  60  78 E7        29.54F
ZANESVILLE     LGT RAIN  62  58  86 SE10      29.56F
NEW PHILLY     NOT AVBL
$$




USA.gov is the U.S. government's official web portal to all federal, state and local government web resources and services.